[[{"header":{"parameterUnit":"m.s-1","parameterCategory":1,"la1":30.2991,"la2":30.254,"lo1":-89.0895,"lo2":-89.0444,"dy":0.0017,"dx":0.0017,"nx":28,"ny":28,"refTime":"2025-11-11T09:00:00:Z","depth":0,"parameterNumber":2,"parameterNumberName":"U-component_of_WINDS"},"data":[0,0,0,0,0,0,0,0,0,0,0,0,0,0,0,0,0,0,0,0,0,0,0,0,0,0,0,0,0,0,0,0,0,0,0,0,0,0,0,0,0,0,0,0,0,0,0,0,0,0,0,0,0,0,0,0,0,0,-2.3458,-2.3459,0,-2.3525,-2.3526,-2.3527,-2.341,-2.3406,-2.3402,-2.3399,-2.3468,-2.3474,-2.3479,0,0,0,0,0,0,0,0,0,0,0,0,0,-2.323,-2.3235,-2.3458,-2.3459,-2.346,-2.3525,-2.3526,-2.3527,-2.3411,-2.3406,-2.3401,-2.3397,-2.3466,-2.3473,-2.348,0,0,0,0,0,0,0,0,0,0,0,0,0,-2.3316,-2.3236,-2.3458,-2.341,-2.3406,-2.3525,-2.3526,-2.3527,-2.3412,-2.3406,-2.34,-2.3394,-2.3464,-2.3472,-2.3481,-2.365,0,0,-2.3506,-2.3509,0,0,0,0,0,0,0,0,-2.3312,-2.3325,-2.3416,-2.3413,-2.3409,-2.3453,-2.3471,-2.3568,-2.3413,-2.341,-2.3398,-2.3392,-2.3468,-2.3476,-2.3501,-2.3653,-2.3656,-2.3507,-2.3512,-2.3515,-2.3517,0,0,0,0,0,0,0,-2.3306,-2.3321,-2.3485,-2.3418,-2.3414,-2.3385,-2.339,-2.3489,-2.3471,-2.341,-2.3401,-2.3411,-2.3465,-2.3494,-2.3502,-2.3657,-2.3506,-2.3514,-2.3519,-2.3522,-2.3948,-2.3954,0,0,0,0,0,0,-2.3306,-2.3317,-2.3482,-2.3487,-2.3345,-2.3394,-2.34,-2.3445,-2.347,-2.3468,-2.3416,-2.3405,-2.3482,-2.3492,-2.3504,-2.3702,-2.3515,-2.3523,-2.3528,-2.3942,-2.395,-2.3956,0,0,0,0,0,0,-2.3301,-2.3322,-2.348,-2.34,-2.3417,-2.3404,-2.3455,-2.345,-2.3478,-2.3474,-2.3471,-2.3448,-2.3478,-2.3492,-2.3614,-2.3703,-2.3527,-2.3534,-2.3934,-2.3944,-2.3953,-2.4101,0,0,0,0,0,0,-2.3295,-2.3321,-2.3385,-2.3402,-2.3422,-2.3589,-2.3461,-2.3455,-2.3492,-2.3479,-2.3504,-2.3502,-2.3474,-2.3602,-2.3622,-2.3711,-2.3541,-2.3926,-2.3939,-2.395,-2.4088,-2.4114,-2.4137,0,0,0,0,0,-2.3287,-2.3425,-2.3389,-2.3409,-2.3502,-2.3594,-2.3606,-2.3571,-2.35,-2.3564,-2.3562,-2.3501,-2.369,-2.3615,-2.3637,-2.373,-2.3921,-2.3935,-2.3949,-2.4077,-2.4109,-2.4136,0,0,0,0,0,0,-2.342,-2.3426,-2.3386,-2.3533,-2.3564,-2.3575,-2.3655,-2.3607,-2.3659,-2.3644,-2.3599,-2.3605,-2.3736,-2.3745,-2.3662,-2.3894,-2.3793,-2.3813,-2.3883,-2.3913,-2.3937,-2.3932,-2.3547,0,0,0,0,0,-2.3466,-2.354,-2.3541,-2.3671,-2.3688,-2.3669,-2.3708,-2.3678,-2.3708,-2.3721,-2.3727,-2.3759,-2.3825,-2.387,-2.3931,-2.4088,-2.4091,-2.4163,-2.4187,-2.4207,-2.4224,-2.4307,-2.4338,-2.4003,-2.4003,-2.4003,0,0,-2.3562,-2.3575,-2.3624,-2.3698,-2.3718,-2.3795,-2.3681,-2.3768,-2.3825,-2.3734,-2.3849,-2.3855,-2.3887,-2.4027,-2.4089,-2.4038,-2.4317,-2.4226,-2.4242,-2.4248,-2.4325,-2.4356,-2.4384,-2.4013,-2.4011,-2.401,0,0,-2.3777,-2.3794,-2.3903,-2.3925,-2.3957,-2.3943,-2.3969,-2.3987,-2.3987,-2.4101,-2.4034,-2.4101,-2.4216,-2.4241,-2.4269,-2.4492,-2.4438,-2.4513,-2.464,-2.4721,-2.4747,-2.477,-2.4848,-2.4877,-2.453,-2.453,-2.4531,0,-2.3892,-2.4006,-2.3965,-2.4056,-2.409,-2.4011,-2.412,-2.4144,-2.4194,-2.4219,-2.4162,-2.4303,-2.432,-2.4464,-2.4518,-2.4543,-2.4571,-2.451,-2.4747,-2.477,-2.4791,-2.4864,-2.4894,-2.4539,-2.4538,-2.4537,-2.4536,0,-2.4146,-2.4226,-2.431,-2.4359,-2.4403,-2.4503,-2.4477,-2.4525,-2.4491,-2.4483,-2.4599,-2.4616,-2.4678,-2.471,-2.4678,-2.4849,-2.4816,-2.4754,-2.4652,-2.4832,-2.49,-2.4929,-2.4552,-2.4549,-2.4546,-2.4544,0,0,-2.4447,-2.4471,-2.4503,-2.4523,-2.4552,-2.4612,-2.4708,-2.4768,-2.481,-2.4847,-2.4926,-2.5024,-2.4966,-2.4998,-2.4968,-2.5039,-2.5212,-2.4967,-2.4967,-2.5011,-2.5399,-2.5445,-2.5479,-2.5176,-2.5182,-2.5186,-2.5396,0,-2.4659,-2.4824,-2.4789,-2.4951,-2.5023,-2.4948,-2.5031,-2.5057,-2.5052,-2.5112,-2.5106,-2.5177,-2.5095,-2.5113,-2.518,-2.5177,-2.5289,-2.5161,-2.5248,-2.5252,-2.5242,-2.5515,-2.5564,-2.5762,-2.5423,-2.5427,-2.5431,0,-2.4929,-2.4975,-2.5144,-2.5158,-2.5188,-2.5263,-2.5314,-2.5373,-2.5401,-2.5392,-2.5427,-2.5383,-2.5477,-2.5374,-2.5503,-2.5416,-2.545,-2.5453,-2.546,-2.5466,-2.5352,-2.5528,-2.5824,-2.5854,-2.5473,-2.5469,-2.5466,0,-2.5129,-2.5234,-2.5347,-2.5368,-2.5389,-2.5443,-2.5454,-2.5476,-2.5514,-2.5558,-2.5582,-2.5637,-2.5668,-2.5711,-2.5683,-2.5611,-2.5816,-2.5711,-2.581,-2.5811,-2.5857,-2.5854,-2.6162,-2.588,-2.588,-2.5879,-2.5879,0,-2.537,-2.5475,-2.5438,-2.5508,-2.5624,-2.5582,-2.5698,-2.57,-2.572,-2.5789,-2.5728,-2.5793,-2.5753,-2.5815,-2.5794,-2.5902,-2.5917,-2.5912,-2.5904,-2.5917,-2.5917,-2.5937,-2.5922,-2.5887,-2.5885,-2.5884,-2.5883,0,-2.5613,-2.5592,-2.5711,-2.5721,-2.5725,-2.581,-2.5818,-2.5883,-2.5872,-2.596,-2.5978,-2.5962,-2.6032,-2.6008,-2.6084,-2.6069,-2.6207,-2.6183,-2.6198,-2.6191,-2.6291,-2.6281,-2.6622,-2.6664,-2.6356,-2.6359,-2.6362,0,-2.5767,-2.5847,-2.5864,-2.5905,-2.5921,-2.5988,-2.6026,-2.5988,-2.6029,-2.6066,-2.6126,-2.6191,-2.624,-2.6355,-2.635,-2.6407,-2.6382,-2.6498,-2.6391,-2.64,-2.6382,-2.6378,-2.6384,-2.6519,-2.6523,-2.6526,-2.6528,0,-2.6042,-2.6028,-2.6084,-2.6137,-2.6183,-2.6223,-2.6257,-2.6294,-2.6258,-2.6308,-2.6378,-2.6416,-2.6492,-2.6557,-2.6607,-2.6618,-2.6567,-2.6562,-2.6587,-2.66,-2.6605,-2.6602,-2.6255,-2.6554,-2.6551,-2.655,-2.6548,-2.6547,-2.6245,-2.6311,-2.6333,-2.6397,-2.6419,-2.6452,-2.6513,-2.6509,-2.6567,-2.6626,-2.66,-2.6681,-2.6705,-2.6767,-2.6785,-2.6847,-2.6803,-2.6841,-2.685,-2.6859,-2.6871,-2.6596,-2.6857,-2.6856,-2.6855,-2.6855,-2.6854,0,-2.6515,-2.6525,-2.6585,-2.6634,-2.6685,-2.6632,-2.6666,-2.6712,-2.6784,-2.681,-2.6859,-2.6939,-2.7001,-2.7,-2.7057,-2.7107,-2.7085,-2.7123,-2.7118,-2.7121,-2.6909,-2.688,-2.714,-2.714,-2.714,-2.714,-2.714,-2.714,-2.6662,-2.677,-2.6758,-2.6877,-2.6886,-2.6964,-2.6988,-2.7018,-2.7039,-2.713,-2.7181,-2.718,-2.7195,-2.7252,-2.7306,-2.7304,-2.7327,-2.7374,-2.7364,-2.7165,-2.7137,-2.711,-2.7082,-2.738,-2.738,-2.757,-2.7572,-2.7573]},{"header":{"parameterUnit":"m.s-1","parameterCategory":1,"la1":30.2991,"la2":30.254,"lo1":-89.0895,"lo2":-89.0444,"dy":0.0017,"dx":0.0017,"nx":28,"ny":28,"refTime":"2025-11-11T09:00:00:Z","depth":0,"parameterNumber":3,"parameterNumberName":"V-component_of_WINDS"},"data":[0,0,0,0,0,0,0,0,0,0,0,0,0,0,0,0,0,0,0,0,0,0,0,0,0,0,0,0,0,0,0,0,0,0,0,0,0,0,0,0,0,0,0,0,0,0,0,0,0,0,0,0,0,0,0,0,0,0,-3.9143,-3.9145,0,-3.9269,-3.927,-3.9271,-3.9241,-3.9238,-3.9236,-3.9233,-3.936,-3.9366,-3.9372,0,0,0,0,0,0,0,0,0,0,0,0,0,-3.8875,-3.888,-3.9143,-3.9145,-3.9146,-3.9268,-3.927,-3.9272,-3.9241,-3.9238,-3.9235,-3.9232,-3.9359,-3.9365,-3.9372,0,0,0,0,0,0,0,0,0,0,0,0,0,-3.8995,-3.8881,-3.9143,-3.9146,-3.9147,-3.9268,-3.927,-3.9272,-3.9242,-3.9238,-3.9234,-3.9231,-3.9356,-3.9365,-3.9373,-3.9498,0,0,-3.9399,-3.9403,0,0,0,0,0,0,0,0,-3.8988,-3.9005,-3.9144,-3.9146,-3.9148,-3.9235,-3.9222,-3.9348,-3.9243,-3.9206,-3.9233,-3.9229,-3.9322,-3.9333,-3.9364,-3.9504,-3.951,-3.94,-3.9405,-3.9408,-3.9411,0,0,0,0,0,0,0,-3.898,-3.8999,-3.9193,-3.9146,-3.9148,-3.914,-3.9153,-3.9246,-3.9283,-3.9209,-3.9207,-3.9222,-3.9322,-3.9356,-3.9367,-3.9512,-3.9399,-3.9407,-3.9412,-3.9415,-3.9759,-3.9763,0,0,0,0,0,0,-3.897,-3.8992,-3.9189,-3.9196,-3.9057,-3.9148,-3.9162,-3.9211,-3.9281,-3.9289,-3.9225,-3.922,-3.9343,-3.9357,-3.9371,-3.9521,-3.9408,-3.9416,-3.9421,-3.9755,-3.976,-3.9764,0,0,0,0,0,0,-3.8964,-3.8988,-3.9184,-3.9094,-3.9118,-3.9156,-3.9211,-3.9215,-3.9249,-3.9294,-3.93,-3.9253,-3.9341,-3.9359,-3.9467,-3.9525,-3.942,-3.9428,-3.975,-3.9756,-3.9762,-3.9823,0,0,0,0,0,0,-3.8957,-3.8986,-3.9035,-3.9095,-3.9123,-3.9278,-3.9215,-3.922,-3.9264,-3.9259,-3.9322,-3.9329,-3.934,-3.9454,-3.9475,-3.9535,-3.9434,-3.9745,-3.9753,-3.976,-3.9816,-3.9831,-3.9843,0,0,0,0,0,-3.8947,-3.9047,-3.9037,-3.9061,-3.9185,-3.9281,-3.9297,-3.9308,-3.9269,-3.9318,-3.9346,-3.9327,-3.9516,-3.9465,-3.9489,-3.9552,-3.9741,-3.9751,-3.9759,-3.981,-3.9828,-3.9843,0,0,0,0,0,0,-3.8992,-3.9055,-3.9045,-3.9168,-3.9219,-3.9276,-3.9338,-3.9326,-3.939,-3.9382,-3.9392,-3.9407,-3.9516,-3.9545,-3.9488,-3.9676,-3.9623,-3.9637,-3.9653,-3.9671,-3.9684,-3.9674,-3.9441,0,0,0,0,0,-3.9016,-3.909,-3.9141,-3.9244,-3.9271,-3.93,-3.9342,-3.9346,-3.94,-3.9421,-3.9458,-3.951,-3.9581,-3.9628,-3.9695,-3.982,-3.9833,-3.9875,-3.9889,-3.99,-3.9912,-3.9978,-3.9997,-3.9794,-3.9794,-3.9794,0,0,-3.9067,-3.9111,-3.9157,-3.9254,-3.9295,-3.937,-3.9318,-3.94,-3.9456,-3.9434,-3.9537,-3.9565,-3.9624,-3.9741,-3.9794,-3.9768,-3.9971,-3.9911,-3.992,-3.9926,-3.999,-4.0009,-4.0026,-3.98,-3.9799,-3.9798,0,0,-3.9198,-3.9239,-3.9328,-3.937,-3.9432,-3.945,-3.9472,-3.953,-3.9548,-3.9652,-3.9637,-3.9702,-3.9825,-3.9867,-3.9905,-4.005,-4.0034,-4.0072,-4.0142,-4.0207,-4.0223,-4.0237,-4.0287,-4.0306,-4.0084,-4.0084,-4.0084,0,-3.9253,-3.9366,-3.9376,-3.9459,-3.9501,-3.9485,-3.9575,-3.9615,-3.9696,-3.9725,-3.9695,-3.9848,-3.9887,-4.0012,-4.0047,-4.0079,-4.0102,-4.0064,-4.022,-4.0234,-4.0248,-4.0296,-4.0315,-4.0088,-4.0087,-4.0087,-4.0087,0,-3.9429,-3.9508,-3.9573,-3.9651,-3.9701,-3.9788,-3.981,-3.9859,-3.9858,-3.988,-3.9985,-4.003,-4.0107,-4.0137,-4.0137,-4.0262,-4.0244,-4.0217,-4.0163,-4.0271,-4.0316,-4.0335,-4.0094,-4.0092,-4.0091,-4.009,0,0,-3.9592,-3.9674,-3.9698,-3.9732,-3.9799,-3.986,-3.9944,-4.0019,-4.006,-4.0117,-4.0187,-4.0291,-4.0266,-4.0309,-4.0313,-4.037,-4.0481,-4.0336,-4.0338,-4.0361,-4.0619,-4.0638,-4.066,-4.0471,-4.0475,-4.0477,-4.0614,0,-3.9727,-3.9877,-3.9888,-4.0023,-4.0095,-4.0079,-4.0153,-4.0202,-4.0224,-4.0287,-4.0311,-4.0384,-4.0347,-4.0372,-4.0428,-4.0455,-4.0533,-4.0446,-4.0536,-4.0539,-4.052,-4.0684,-4.0704,-4.0831,-4.0632,-4.0635,-4.0637,0,-3.9905,-3.9966,-4.0109,-4.0164,-4.0194,-4.026,-4.0329,-4.039,-4.0444,-4.0456,-4.0503,-4.05,-4.0586,-4.0529,-4.0647,-4.0588,-4.0625,-4.0644,-4.065,-4.0658,-4.0594,-4.0695,-4.0872,-4.089,-4.0666,-4.0663,-4.0661,0,-4.0008,-4.0126,-4.0226,-4.0256,-4.0323,-4.037,-4.04,-4.045,-4.0494,-4.0554,-4.0582,-4.0651,-4.0689,-4.0742,-4.0757,-4.0715,-4.0874,-4.0819,-4.0885,-4.0885,-4.0919,-4.0916,-4.1103,-4.0945,-4.0944,-4.0944,-4.0944,0,-4.0157,-4.0244,-4.0272,-4.0334,-4.043,-4.0441,-4.0537,-4.0564,-4.0609,-4.0674,-4.0666,-4.0727,-4.0743,-4.0808,-4.082,-4.0915,-4.0932,-4.0943,-4.0945,-4.0944,-4.0942,-4.0968,-4.0959,-4.0949,-4.0948,-4.0947,-4.0946,0,-4.0287,-4.031,-4.0418,-4.0472,-4.0488,-4.0557,-4.0603,-4.0662,-4.0682,-4.0765,-4.0785,-4.0817,-4.0893,-4.0913,-4.1003,-4.1011,-4.1123,-4.1117,-4.1104,-4.1104,-4.1168,-4.1161,-4.1377,-4.1405,-4.123,-4.1231,-4.1233,0,-4.0381,-4.0447,-4.0509,-4.0552,-4.0584,-4.0655,-4.0699,-4.0712,-4.0759,-4.0825,-4.0875,-4.0949,-4.1009,-4.113,-4.1161,-4.1229,-4.1224,-4.1295,-4.1235,-4.123,-4.1224,-4.1219,-4.1225,-4.1306,-4.1308,-4.131,-4.1311,0,-4.0544,-4.0551,-4.0616,-4.0684,-4.0737,-4.0792,-4.0844,-4.088,-4.09,-4.0952,-4.1029,-4.1076,-4.1167,-4.1241,-4.131,-4.134,-4.1329,-4.133,-4.1349,-4.1347,-4.1336,-4.1342,-4.1134,-4.1325,-4.1323,-4.1322,-4.1322,-4.1321,-4.0658,-4.0715,-4.0767,-4.0839,-4.088,-4.0928,-4.0985,-4.1013,-4.1077,-4.1153,-4.1157,-4.124,-4.1291,-4.1383,-4.1417,-4.1481,-4.146,-4.1487,-4.1494,-4.15,-4.1505,-4.1327,-4.1494,-4.1494,-4.1493,-4.1493,-4.1493,0,-4.0818,-4.0851,-4.0917,-4.099,-4.1046,-4.1031,-4.1088,-4.1135,-4.1209,-4.1257,-4.1316,-4.1404,-4.1475,-4.1511,-4.1581,-4.1626,-4.1622,-4.1644,-4.164,-4.1647,-4.1521,-4.1497,-4.1645,-4.1645,-4.1645,-4.1645,-4.1645,-4.1645,-4.0909,-4.1005,-4.1019,-4.1135,-4.1167,-4.1248,-4.1282,-4.1326,-4.1365,-4.1463,-4.1522,-4.1545,-4.1589,-4.1662,-4.1726,-4.1734,-4.176,-4.1784,-4.179,-4.1671,-4.1656,-4.1641,-4.1619,-4.179,-4.179,-4.191,-4.1912,-4.1912]}]]